#timestamp,LO_Frequency,Hit 
1500134415.7,286047001.5,N
1500134435.6,286047001.8,N
1500134455.4,286047004.4,N
1500134475.2,286047001.6,N
1500134495.1,286047001.9,N
1500134496.0,286047001.9,N
1500134515.8,286047005.9,N
1500134535.6,286047003.0,N
1500134555.5,286047005.7,N
1500134575.3,286047005.3,N
1500134595.1,286047005.3,N
1500134645.9,286047005.5,Y
1500134655.8,286047002.3,N
1500134675.7,286046996.2,N
1500134695.5,286046997.2,N
1500134715.3,286046996.9,N
1500134735.2,286046995.0,N
1500134755.0,286046996.6,N
1500134755.9,286046996.6,N
1500134775.8,286046996.6,N
1500134795.6,286046996.7,N
1500134815.4,286046997.3,N
1500134835.3,286046995.2,N
1500134855.1,286046995.3,N
1500134875.8,286046997.8,N
1500134895.7,286046995.1,N
1500134915.5,286046995.0,N
1500134935.4,286046997.2,N
1500134955.2,286046998.8,N
1500134975.0,286046999.1,N
1500134975.9,286046999.1,N
1500134995.8,286046996.8,N
1500135015.6,286046996.7,N
1500135035.5,286046999.6,N
1500135055.3,286046997.7,N
1500135075.1,286046996.8,N
1500135095.9,286046997.0,N
1500135115.7,286046997.2,N
1500135135.5,286046997.7,N
1500135155.4,286046995.1,N
1500135175.2,286046995.2,N
1500135195.1,286046995.2,N
1500135196.0,286046995.2,N
1500135215.8,286046996.2,N
1500135235.6,286046993.4,N
1500135255.5,286046995.2,N
1500135275.3,286046996.3,N
1500135295.2,286046995.5,N
1500135315.9,286046997.5,N
1500135335.7,286046999.2,N
1500135355.6,286046997.4,N
1500135375.4,286046995.3,N
1500135395.2,286046996.8,N
1500135415.1,286046998.5,N
1500135416.0,286046998.5,N
1500135435.8,286046999.3,N
1500135455.7,286046998.7,N
1500135475.5,286047000.9,N
1500135495.3,286046999.9,N
1500135515.2,286046998.5,N
1500135535.9,286046998.1,N
1500135555.7,286047001.2,N
1500135575.6,286046998.4,N
1500135595.4,286046999.1,N
1500135615.2,286046998.4,N
1500135635.1,286046998.7,N
1500135636.0,286046998.7,N
1500135655.8,286046998.5,N
1500135675.7,286046996.5,N
1500135695.5,286046998.2,N
1500135715.3,286047000.6,N
1500135735.2,286047000.9,N
1500135755.0,286046999.7,N
1500135755.9,286046999.7,N
1500135775.8,286046998.2,N
1500135795.6,286046996.6,N
1500135815.4,286046999.6,N
1500135835.3,286047000.0,N
1500135855.1,286046999.1,N
1500135875.8,286046997.5,N
1500135895.7,286046996.7,N
1500135915.5,286046999.1,N
1500135935.3,286046999.0,N
1500135955.2,286046998.2,N
1500135975.0,286046998.3,N
1500135975.9,286046998.3,N
1500135995.8,286047000.1,N
1500136015.6,286047000.6,N
1500136035.4,286046998.5,N
1500136055.3,286046998.4,N
1500136075.1,286047000.9,N
1500136095.8,286046998.4,N
1500136115.7,286047000.7,N
1500136135.5,286046998.1,N
1500136155.4,286047001.2,N
1500136175.2,286047001.1,N
1500136195.0,286046999.4,N
1500136195.9,286046999.4,N
1500136215.8,286047001.1,N
1500136235.6,286047000.8,N
1500136255.5,286046999.0,N
1500136275.3,286046999.4,N
1500136295.1,286046996.9,N
1500136315.9,286046997.0,N
1500136335.7,286046999.2,N
1500136355.5,286046999.3,N
1500136375.4,286046999.4,N
1500136395.2,286046998.9,N
1500136415.0,286046998.2,N
1500136416.0,286046998.2,N
1500136435.8,286046999.6,N
1500136455.6,286046996.9,N
1500136475.5,286046997.7,N
1500136495.3,286046997.9,N
1500136515.1,286046997.6,N
1500136535.9,286046997.0,N
1500136555.7,286047000.0,N
1500136575.6,286047000.8,N
1500136595.4,286046999.2,N
1500136615.2,286046998.8,N
1500136635.1,286046997.1,N
1500136636.0,286046997.1,N
1500136655.8,286046999.4,N
1500136675.6,286046999.4,N
1500136695.5,286046998.9,N
1500136715.3,286046999.3,N
1500136735.2,286047000.8,N
1500136755.9,286047000.8,N
1500136775.7,286047000.8,N
1500136795.6,286047000.6,N
1500136815.4,286047000.6,N
1500136835.2,286047002.4,N
1500136855.1,286047000.3,N
1500136856.0,286047000.3,N
1500136875.8,286047000.0,N
1500136895.7,286047001.9,N
1500136915.5,286047002.7,N
1500136935.3,286047000.2,N
1500136955.2,286047000.4,N
1500136975.9,286047000.1,N
1500136995.7,286047000.3,N
1500137015.6,286047001.1,N
1500137035.4,286047000.6,N
1500137055.2,286047001.2,N
1500137075.1,286047000.6,N
1500137076.0,286047000.6,N
1500137095.8,286046998.9,N
1500137115.7,286047000.6,N
1500137135.5,286047000.0,N
1500137155.3,286046998.3,N
1500137175.2,286046998.9,N
1500137195.0,286046999.4,N
1500137195.9,286046999.4,N
1500137215.8,286046999.3,N
1500137235.6,286046998.9,N
1500137255.4,286046999.1,N
1500137275.3,286046999.3,N
1500137295.1,286047000.9,N
1500137315.8,286047002.7,N
1500137335.7,286047001.0,N
1500137355.5,286046999.0,N
1500137375.3,286046998.2,N
1500137395.2,286047000.9,N
1500137415.0,286046997.0,N
1500137415.9,286046997.0,N
1500137435.8,286046999.6,N
1500137455.6,286046998.7,N
1500137475.4,286046999.1,N
1500137495.3,286047000.7,N
1500137515.1,286047001.0,N
1500137535.8,286047000.7,N
1500137555.7,286046998.4,N
1500137575.5,286046999.5,N
1500137595.4,286046999.2,N
1500137615.2,286046999.1,N
1500137635.0,286046997.4,N
1500137635.9,286046997.4,N
1500137655.8,286046997.1,N
1500137675.6,286046997.2,N
1500137695.4,286046999.6,N
1500137715.3,286046996.7,N
1500137735.1,286046998.9,N
1500137755.9,286046998.3,N
1500137775.7,286047000.5,N
1500137795.5,286046998.7,N
1500137815.4,286046998.9,N
1500137835.2,286047000.8,N
1500137855.0,286047000.8,N
1500137855.9,286047000.8,N
1500137875.8,286046998.7,N
1500137895.6,286046998.8,N
1500137915.5,286046998.8,N
1500137935.3,286046998.1,N
1500137955.1,286047000.4,N
1500137975.9,286047001.1,N
1500137995.7,286047001.2,N
